Location: ???????
(55.4362°N, 38.1183°E)
Time: 03:35:56
(UTC+00:00)

MOZ.5/SAFIR/RUBIN 5/SL-8 - Pass Details

Date: 17 June 2021
Orbit: 677 x 706 km, 98.1° (Epoch: 26 July)

Event Time Altitude Azimuth Distance (km) Brightness Sun altitude
Exits shadow 22:39:48 10° 171° (S) 2,165 5.8 -9.7°
Reaches altitude 10° 22:39:49 10° 171° (S) 2,158 5.8 -9.7°
Maximum altitude 22:44:33 72° 257° (WSW) 744 3.9 -9.5°
Drops below altitude 10° 22:49:20 10° 341° (NNW) 2,187 7.2 -9.3°
Sets 22:51:37 0° 344° (NNW) 3,113 8.2 -9.2°
